Weather History for KRNT - October, 2013

Change the Weather History Date:

Sunday, October 6, 2013

  Actual Average Record
Temperature  
Mean Temperature 58 °F -  
Max Temperature 75 °F 62 °F 77 °F (2000)
Min Temperature 44 °F 48 °F 42 °F (2000)
Degree Days  
Heating Degree Days 6    
Growing Degree Days 8 (Base 50)    
Moisture  
Dew Point 46 °F    
Average Humidity 81    
Maximum Humidity 100    
Minimum Humidity 33    
Precipitation  
Precipitation 0.00 in - - ()
Sea Level Pressure  
Sea Level Pressure 30.02 in    
Wind  
Wind Speed 3 mph (SE)    
Max Wind Speed 8 mph    
Max Gust Speed -    
Visibility 7 miles    
Events Fog , Rain    
Averages and records for this station are not official NWS values.
T = Trace of Precipitation, MM = Missing Value Source: NWS Daily Summary

Daily Weather History Graph

Daily Weather History Graph

Search for Another Location

Airport or City:

Trip Planner

Search our weather history database for the weather conditions in past years. The results will help you decide how hot, cold, wet, or windy it might be!

Date:

Astronomy

Oct. 06, 2013 Rise Set
Actual Time 7:15 AM PDT 6:37 PM PDT
Civil Twilight 6:44 AM PDT 7:08 PM PDT
Nautical Twilight 6:08 AM PDT 7:43 PM PDT
Astronomical Twilight 5:32 AM PDT 8:19 PM PDT
Moon 9:15 AM PDT (10/6) 7:29 PM PDT (10/6)
Length of Visible Light 12h 23m
Length of Day
11h 22m
Waxing Crescent, 4% of the Moon is Illuminated
Oct 6
Waxing Crescent
Oct 11
First Quarter
Oct 18
Full
Oct 26
Last Quarter
Nov 3
New

Hourly Weather History & Observations

Time (PDT) Temp. Windchill Dew Point Humidity Pressure Visibility Wind Dir Wind Speed Gust Speed Precip Events Conditions
12:53 AM 50.0 °F - 48.0 °F 93% 30.15 in 9.0 mi Calm Calm - N/A   Clear
1:53 AM 48.0 °F - 46.9 °F 96% 30.14 in 8.0 mi ESE 3.5 mph - N/A   Clear
2:53 AM 46.9 °F - 46.0 °F 97% 30.13 in 8.0 mi Calm Calm - N/A   Clear
3:53 AM 46.0 °F - 45.0 °F 96% 30.11 in 8.0 mi Calm Calm - N/A   Clear
4:44 AM 44.6 °F - 44.6 °F 100% 30.08 in 7.0 mi Calm Calm - N/A   Scattered Clouds
4:53 AM 45.0 °F - 44.1 °F 97% 30.09 in 7.0 mi Calm Calm - N/A   Mostly Cloudy
5:34 AM 44.6 °F - 44.6 °F 100% 30.06 in 8.0 mi Calm Calm - N/A   Scattered Clouds
5:53 AM 45.0 °F - 44.1 °F 97% 30.08 in 7.0 mi Calm Calm - N/A   Scattered Clouds
6:01 AM 44.6 °F 43.1 °F 44.6 °F 100% 30.06 in 7.0 mi East 3.5 mph - N/A   Mostly Cloudy
6:53 AM 44.1 °F 42.5 °F 44.1 °F 100% 30.06 in 7.0 mi ESE 3.5 mph - N/A   Overcast
7:22 AM 44.6 °F 42.2 °F 44.6 °F 100% 30.04 in 6.0 mi ESE 4.6 mph - N/A   Scattered Clouds
7:49 AM 44.6 °F 41.4 °F 44.6 °F 100% 30.03 in 1.5 mi ESE 5.8 mph - N/A   Mostly Cloudy
7:53 AM 45.0 °F 41.2 °F 44.1 °F 97% 30.05 in 1.5 mi ESE 6.9 mph - N/A   Mostly Cloudy
8:01 AM 44.6 °F 41.4 °F 44.6 °F 100% 30.03 in 0.5 mi East 5.8 mph - N/A Fog Fog
8:34 AM 44.6 °F 42.2 °F 44.6 °F 100% 30.03 in 2.5 mi East 4.6 mph - N/A   Mostly Cloudy
8:42 AM 44.6 °F 42.2 °F 44.6 °F 100% 30.03 in 2.5 mi ESE 4.6 mph - N/A   Scattered Clouds
8:51 AM 44.6 °F 42.2 °F 44.6 °F 100% 30.03 in 3.0 mi ESE 4.6 mph - N/A   Scattered Clouds
8:53 AM 45.0 °F 42.6 °F 45.0 °F 100% 30.04 in 3.0 mi East 4.6 mph - N/A   Scattered Clouds
9:53 AM 51.1 °F - 46.9 °F 86% 30.04 in 7.0 mi SE 5.8 mph - N/A   Clear
10:53 AM 57.0 °F - 48.9 °F 74% 30.02 in 10.0 mi SSE 6.9 mph - N/A   Clear
11:53 AM 62.1 °F - 50.0 °F 65% 30.00 in 10.0 mi South 5.8 mph - N/A   Clear
12:53 PM 69.1 °F - 51.1 °F 53% 29.98 in 10.0 mi South 5.8 mph - N/A   Clear
1:53 PM 69.1 °F - 52.0 °F 54% 29.95 in 10.0 mi Calm Calm - N/A   Clear
2:53 PM 73.0 °F - 43.0 °F 34% 29.94 in 10.0 mi Variable 4.6 mph - N/A   Clear
3:53 PM 73.0 °F - 45.0 °F 37% 29.92 in 10.0 mi SSE 6.9 mph - N/A   Clear
4:53 PM 73.0 °F - 42.1 °F 33% 29.91 in 10.0 mi SE 5.8 mph - N/A   Clear
5:53 PM 70.0 °F - 42.1 °F 36% 29.90 in 10.0 mi ESE 4.6 mph - N/A   Clear
6:53 PM 64.9 °F - 45.0 °F 48% 29.92 in 9.0 mi SW 8.1 mph - N/A   Clear
7:53 PM 61.0 °F - 48.0 °F 62% 29.93 in 10.0 mi Variable 3.5 mph - N/A   Clear
8:53 PM 57.9 °F - 48.9 °F 72% 29.94 in 10.0 mi Calm Calm - N/A   Clear
9:53 PM 54.0 °F - 50.0 °F 86% 29.94 in 10.0 mi Calm Calm - N/A   Clear
10:53 PM 55.0 °F - 48.9 °F 80% 29.94 in 10.0 mi SSE 5.8 mph - N/A   Mostly Cloudy
11:53 PM 55.0 °F - 50.0 °F 83% 29.94 in 6.0 mi Calm Calm - 0.00 in Rain Light Rain